[[{"header":{"parameterUnit":"m.s-1","parameterCategory":1,"la1":30.2991,"la2":30.254,"lo1":-89.0895,"lo2":-89.0444,"dy":0.0017,"dx":0.0017,"nx":28,"ny":28,"refTime":"2023-10-25T03:00:00:Z","depth":0,"parameterNumber":2,"parameterNumberName":"U-component_of_WINDS"},"data":[0,0,0,0,0,0,0,0,0,0,0,0,0,0,0,0,0,0,0,0,0,0,0,0,0,0,0,0,0,0,0,0,0,0,0,0,0,0,0,0,0,0,0,0,0,0,0,0,0,0,0,0,0,0,0,0,0,0,-5.1811,-5.1811,0,-5.1853,-5.1854,-5.1854,-5.1755,-5.1752,-5.1749,-5.1746,-5.1788,-5.1792,-5.1796,0,0,0,0,0,0,0,0,0,0,0,0,0,-5.1645,-5.1649,-5.1811,-5.1811,-5.1812,-5.1853,-5.1854,-5.1854,-5.1756,-5.1752,-5.1748,-5.1744,-5.1787,-5.1792,-5.1797,0,0,0,0,0,0,0,0,0,0,0,0,0,-5.1705,-5.165,-5.1811,-5.1768,-5.1764,-5.1853,-5.1854,-5.1855,-5.1756,-5.1752,-5.1747,-5.1743,-5.1785,-5.1791,-5.1797,-5.193,0,0,-5.1816,-5.1819,0,0,0,0,0,0,0,0,-5.1702,-5.1711,-5.1773,-5.1771,-5.1767,-5.1794,-5.1811,-5.188,-5.1758,-5.1759,-5.1746,-5.174,-5.1794,-5.1799,-5.1817,-5.1931,-5.1933,-5.1816,-5.182,-5.1823,-5.1824,0,0,0,0,0,0,0,-5.1698,-5.1709,-5.1827,-5.1775,-5.1771,-5.1746,-5.175,-5.1823,-5.1803,-5.1759,-5.1752,-5.1758,-5.1791,-5.1812,-5.1818,-5.1934,-5.1816,-5.1822,-5.1825,-5.1828,-5.2161,-5.2166,0,0,0,0,0,0,-5.1699,-5.1706,-5.1826,-5.1829,-5.1722,-5.1753,-5.1757,-5.179,-5.1802,-5.1799,-5.1762,-5.1754,-5.1804,-5.1811,-5.1819,-5.1974,-5.1823,-5.1828,-5.1832,-5.2156,-5.2162,-5.2167,0,0,0,0,0,0,-5.1696,-5.1711,-5.1824,-5.1766,-5.1778,-5.1761,-5.1799,-5.1794,-5.1814,-5.1804,-5.18,-5.1787,-5.18,-5.181,-5.1903,-5.1974,-5.1831,-5.1837,-5.2149,-5.2157,-5.2165,-5.2287,0,0,0,0,0,0,-5.1692,-5.171,-5.176,-5.1768,-5.1782,-5.1908,-5.1804,-5.1798,-5.1825,-5.1814,-5.1826,-5.1824,-5.1797,-5.1895,-5.1909,-5.198,-5.1841,-5.2143,-5.2153,-5.2162,-5.2277,-5.2298,-5.2317,0,0,0,0,0,-5.1686,-5.1792,-5.1763,-5.1778,-5.1843,-5.1912,-5.192,-5.1888,-5.1831,-5.1881,-5.1875,-5.1823,-5.1965,-5.1905,-5.1921,-5.1995,-5.2138,-5.215,-5.2161,-5.2268,-5.2294,-5.2316,0,0,0,0,0,0,-5.1791,-5.1792,-5.176,-5.1871,-5.1893,-5.1895,-5.1957,-5.1917,-5.1955,-5.1942,-5.1901,-5.1905,-5.2006,-5.201,-5.1943,-5.2124,-5.2042,-5.2057,-5.2117,-5.2142,-5.2162,-5.2158,-5.1847,0,0,0,0,0,-5.1828,-5.1884,-5.1882,-5.198,-5.1993,-5.1974,-5.2003,-5.1977,-5.1997,-5.2005,-5.2006,-5.2028,-5.2077,-5.211,-5.2155,-5.2278,-5.2279,-5.2337,-5.2357,-5.2374,-5.2386,-5.2453,-5.2478,-5.2206,-5.2206,-5.2205,0,0,-5.1903,-5.1911,-5.1948,-5.2002,-5.2015,-5.2074,-5.1982,-5.2048,-5.2091,-5.2015,-5.2102,-5.2105,-5.2126,-5.2235,-5.2283,-5.2242,-5.2463,-5.2388,-5.2402,-5.2405,-5.2467,-5.2493,-5.2516,-5.2214,-5.2212,-5.2211,0,0,-5.207,-5.2082,-5.2165,-5.2182,-5.2204,-5.2191,-5.2212,-5.2222,-5.2221,-5.2309,-5.2253,-5.2305,-5.2391,-5.2409,-5.2429,-5.2609,-5.2562,-5.2625,-5.2728,-5.2793,-5.2814,-5.2833,-5.2896,-5.292,-5.2638,-5.2639,-5.2639,0,-5.216,-5.2247,-5.2213,-5.2284,-5.2309,-5.2246,-5.233,-5.2348,-5.2384,-5.2403,-5.2357,-5.2465,-5.2475,-5.2588,-5.2632,-5.2651,-5.2673,-5.2621,-5.2814,-5.2833,-5.285,-5.2909,-5.2934,-5.2646,-5.2645,-5.2644,-5.2644,0,-5.2356,-5.2418,-5.2483,-5.2521,-5.2554,-5.2632,-5.2611,-5.2649,-5.2622,-5.2614,-5.2706,-5.2716,-5.2763,-5.2788,-5.2761,-5.2898,-5.2872,-5.2821,-5.2737,-5.2884,-5.2939,-5.2962,-5.2656,-5.2654,-5.2651,-5.265,0,0,-5.2586,-5.2608,-5.2632,-5.2649,-5.2671,-5.2718,-5.2794,-5.2841,-5.2874,-5.2903,-5.2965,-5.3042,-5.2996,-5.3019,-5.2994,-5.3052,-5.3193,-5.2994,-5.2994,-5.3029,-5.3345,-5.3381,-5.3408,-5.3164,-5.3169,-5.3172,-5.3342,0,-5.275,-5.288,-5.2854,-5.2981,-5.3038,-5.2981,-5.3047,-5.3068,-5.3065,-5.3113,-5.3109,-5.3163,-5.3099,-5.3113,-5.3167,-5.3164,-5.3256,-5.3152,-5.3221,-5.3224,-5.3215,-5.3437,-5.3476,-5.3636,-5.3364,-5.3368,-5.337,0,-5.2957,-5.2995,-5.3129,-5.3144,-5.3167,-5.3227,-5.3269,-5.3316,-5.334,-5.3333,-5.3362,-5.3328,-5.3404,-5.3322,-5.3427,-5.3357,-5.3385,-5.3388,-5.3394,-5.3396,-5.3304,-5.3445,-5.3686,-5.3709,-5.3404,-5.3402,-5.3399,0,-5.311,-5.3195,-5.3286,-5.3302,-5.3323,-5.3367,-5.3377,-5.3397,-5.3428,-5.3465,-5.3485,-5.3531,-5.3555,-5.3592,-5.3571,-5.3514,-5.368,-5.3596,-5.3676,-5.3677,-5.3711,-5.3708,-5.3958,-5.3733,-5.3733,-5.3732,-5.3732,0,-5.3294,-5.3378,-5.3355,-5.341,-5.3503,-5.3474,-5.3567,-5.3571,-5.359,-5.3645,-5.36,-5.3653,-5.3623,-5.3675,-5.366,-5.3749,-5.3761,-5.3758,-5.3752,-5.3761,-5.3761,-5.3776,-5.3763,-5.3738,-5.3737,-5.3736,-5.3735,0,-5.3478,-5.3467,-5.3562,-5.3575,-5.3581,-5.3649,-5.366,-5.3712,-5.3707,-5.3779,-5.3794,-5.3786,-5.3845,-5.3829,-5.3892,-5.3882,-5.3995,-5.3976,-5.3987,-5.3981,-5.4062,-5.4054,-5.4328,-5.4362,-5.4117,-5.4119,-5.4121,0,-5.3595,-5.3658,-5.368,-5.3715,-5.3729,-5.3786,-5.3817,-5.3793,-5.3828,-5.3862,-5.3911,-5.3966,-5.4008,-5.4106,-5.4105,-5.4154,-5.4135,-5.4228,-5.4142,-5.4149,-5.4135,-5.4131,-5.4137,-5.4244,-5.4247,-5.4249,-5.4251,0,-5.3804,-5.3796,-5.3843,-5.3891,-5.3931,-5.3967,-5.3998,-5.4029,-5.4007,-5.4049,-5.4109,-5.4143,-5.421,-5.4265,-5.4311,-5.4322,-5.4283,-5.4279,-5.43,-5.4308,-5.4311,-5.4309,-5.4031,-5.4272,-5.427,-5.4268,-5.4267,-5.4266,-5.3956,-5.4011,-5.4035,-5.4091,-5.4113,-5.4144,-5.4194,-5.4197,-5.4247,-5.4299,-5.4283,-5.4352,-5.4377,-5.4435,-5.4452,-5.4506,-5.4471,-5.4502,-5.4509,-5.4516,-5.4526,-5.4305,-5.4515,-5.4514,-5.4514,-5.4513,-5.4513,0,-5.4161,-5.4175,-5.4227,-5.4274,-5.4318,-5.4281,-5.4315,-5.4354,-5.4416,-5.4443,-5.4487,-5.4558,-5.4612,-5.4618,-5.467,-5.4712,-5.4696,-5.4726,-5.4722,-5.4725,-5.4555,-5.4531,-5.4739,-5.4739,-5.4739,-5.4739,-5.4739,-5.4739,-5.4273,-5.4363,-5.4359,-5.446,-5.4473,-5.4541,-5.4564,-5.4593,-5.4615,-5.4696,-5.4742,-5.4746,-5.4765,-5.4818,-5.4867,-5.4868,-5.4888,-5.4926,-5.4919,-5.4759,-5.4737,-5.4715,-5.4692,-5.4931,-5.4931,-5.5084,-5.5086,-5.5087]},{"header":{"parameterUnit":"m.s-1","parameterCategory":1,"la1":30.2991,"la2":30.254,"lo1":-89.0895,"lo2":-89.0444,"dy":0.0017,"dx":0.0017,"nx":28,"ny":28,"refTime":"2023-10-25T03:00:00:Z","depth":0,"parameterNumber":3,"parameterNumberName":"V-component_of_WINDS"},"data":[0,0,0,0,0,0,0,0,0,0,0,0,0,0,0,0,0,0,0,0,0,0,0,0,0,0,0,0,0,0,0,0,0,0,0,0,0,0,0,0,0,0,0,0,0,0,0,0,0,0,0,0,0,0,0,0,0,0,1.9977,1.9976,0,1.988,1.9879,1.9878,1.9785,1.9783,1.9782,1.9781,1.9681,1.9679,1.9678,0,0,0,0,0,0,0,0,0,0,0,0,0,2.0082,2.008,1.9977,1.9976,1.9975,1.9881,1.9879,1.9878,1.9785,1.9783,1.9782,1.9781,1.9681,1.9679,1.9678,0,0,0,0,0,0,0,0,0,0,0,0,0,2.0016,2.008,1.9977,1.9917,1.9911,1.9881,1.9879,1.9878,1.9785,1.9783,1.9782,1.978,1.9682,1.968,1.9677,1.9699,0,0,1.967,1.9669,0,0,0,0,0,0,0,0,2.002,2.0012,1.9927,1.9921,1.9914,1.9843,1.9879,1.9818,1.9786,1.9833,1.9781,1.9779,1.9736,1.9729,1.9715,1.9694,1.969,1.967,1.9669,1.9668,1.9667,0,0,0,0,0,0,0,2.0024,2.0016,1.9939,1.9926,1.9918,1.9895,1.9884,1.9867,1.9796,1.9828,1.9821,1.9811,1.9732,1.9717,1.9712,1.9688,1.967,1.9668,1.9666,1.9666,1.9684,1.9685,0,0,0,0,0,0,2.0038,2.002,1.9942,1.9936,1.9964,1.9895,1.9882,1.9867,1.9796,1.9783,1.9813,1.9807,1.9722,1.9715,1.9708,1.973,1.9668,1.9665,1.9664,1.9682,1.9684,1.9686,0,0,0,0,0,0,2.0041,2.0032,1.9946,1.9976,1.9963,1.9895,1.9879,1.9866,1.9852,1.9784,1.9771,1.9811,1.972,1.9711,1.9703,1.9725,1.9664,1.9662,1.968,1.9682,1.9685,1.9774,0,0,0,0,0,0,2.0044,2.0034,2.0041,1.9977,1.9962,1.9942,1.9881,1.9866,1.9848,1.984,1.9779,1.9767,1.9718,1.9707,1.97,1.9721,1.966,1.9677,1.9681,1.9684,1.9769,1.978,1.9789,0,0,0,0,0,2.0048,2.0069,2.0042,2.0033,1.997,1.9943,1.9935,1.9879,1.985,1.9857,1.9814,1.9769,1.9724,1.9706,1.9699,1.9719,1.9675,1.968,1.9684,1.9765,1.9778,1.9789,0,0,0,0,0,0,2.0135,2.0059,2.0028,2.0028,1.9994,1.9928,1.9934,1.9895,1.9866,1.986,1.9792,1.9779,1.9778,1.9747,1.9729,1.9738,1.9694,1.9697,1.9758,1.977,1.978,1.9787,1.9658,0,0,0,0,0,2.0155,2.014,2.0074,2.0081,2.0065,2.0004,1.999,1.995,1.9911,1.9895,1.9851,1.9815,1.9793,1.9779,1.9755,1.9765,1.9751,1.9775,1.9785,1.9794,1.9797,1.9802,1.9813,1.97,1.97,1.97,0,0,2.0194,2.0151,2.0146,2.0098,2.0066,2.0053,1.9991,1.9979,1.9969,1.9893,1.9883,1.985,1.9805,1.9806,1.9804,1.978,1.9825,1.9799,1.9806,1.9805,1.9808,1.9819,1.9828,1.9703,1.9702,1.9702,0,0,2.026,2.0225,2.0228,2.0199,2.0152,2.0111,2.0112,2.0053,2.0029,2.0018,1.9962,1.9949,1.9911,1.9882,1.9863,1.9922,1.988,1.9916,1.9968,1.9974,1.9983,1.9991,2.0013,2.0022,1.9919,1.9919,1.992,0,2.0315,2.0293,2.0235,2.0227,2.0209,2.0141,2.0145,2.0118,2.0066,2.0055,2.0029,1.9983,1.9947,1.9942,1.9957,1.9943,1.9943,1.9922,1.9986,1.9993,2.0,2.0021,2.0029,1.9924,1.9924,1.9923,1.9923,0,2.0364,2.035,2.0358,2.0311,2.0293,2.0291,2.0233,2.0223,2.0186,2.0148,2.0139,2.0095,2.0062,2.0058,2.0021,2.0048,2.0035,1.9999,1.9953,2.0016,2.0035,2.0042,1.9931,1.9929,1.9928,1.9927,0,0,2.0479,2.0403,2.0407,2.0386,2.0331,2.0319,2.0315,2.0284,2.0277,2.0244,2.024,2.0212,2.0179,2.0157,2.0116,2.0121,2.0174,2.0084,2.0082,2.0104,2.0204,2.0232,2.0242,2.0146,2.0147,2.0148,2.0208,0,2.0537,2.0526,2.0475,2.0479,2.0467,2.0404,2.0401,2.0367,2.0333,2.0318,2.0279,2.0261,2.0218,2.0205,2.0207,2.0167,2.0193,2.0162,2.0142,2.0142,2.0156,2.0252,2.0281,2.034,2.0215,2.0216,2.0217,0,2.0601,2.0575,2.0578,2.0527,2.0519,2.0517,2.0486,2.0472,2.0434,2.0409,2.0386,2.0342,2.0335,2.0293,2.0284,2.0264,2.0253,2.0232,2.0233,2.0229,2.0184,2.0252,2.0357,2.0367,2.0227,2.0227,2.0226,0,2.0688,2.0652,2.0651,2.0635,2.0574,2.0574,2.0549,2.0509,2.0494,2.0467,2.0458,2.043,2.0415,2.0395,2.0345,2.0318,2.0342,2.0295,2.0322,2.0324,2.033,2.033,2.0436,2.0322,2.0322,2.0321,2.0321,0,2.0757,2.0762,2.0689,2.0688,2.0693,2.0635,2.0641,2.0609,2.0575,2.0568,2.0511,2.0506,2.0439,2.0426,2.0387,2.0387,2.038,2.036,2.035,2.0366,2.0369,2.0358,2.0353,2.0324,2.0323,2.0323,2.0322,0,2.0854,2.0805,2.0799,2.0743,2.073,2.0736,2.0688,2.0685,2.0648,2.064,2.0635,2.0577,2.0559,2.0508,2.0476,2.045,2.0461,2.0441,2.0475,2.0468,2.0499,2.0497,2.0602,2.0614,2.0492,2.0493,2.0494,0,2.0901,2.0904,2.085,2.0841,2.0819,2.0806,2.0792,2.0735,2.0723,2.0682,2.0685,2.0663,2.0642,2.0617,2.0572,2.0549,2.0528,2.0567,2.0524,2.0541,2.0531,2.0532,2.0533,2.0576,2.0578,2.0579,2.058,0,2.0992,2.0969,2.0951,2.0926,2.0911,2.0888,2.0862,2.0858,2.0795,2.0785,2.0766,2.0751,2.072,2.07,2.067,2.0644,2.0603,2.0594,2.0599,2.0616,2.0636,2.0627,2.0501,2.0592,2.059,2.059,2.0589,2.0589,2.1066,2.1067,2.103,2.1013,2.0988,2.0966,2.0961,2.0926,2.091,2.0881,2.0849,2.0835,2.0799,2.0755,2.0733,2.0722,2.0699,2.0706,2.0708,2.0711,2.072,2.0638,2.0716,2.0715,2.0715,2.0715,2.0714,0,2.1156,2.113,2.1115,2.1081,2.1068,2.1031,2.1001,2.0993,2.0982,2.0952,2.0934,2.0915,2.0896,2.0851,2.0828,2.0828,2.0809,2.0824,2.0824,2.0819,2.074,2.0739,2.0841,2.0841,2.0841,2.0841,2.0841,2.0841,2.1201,2.1201,2.1174,2.1162,2.1136,2.1123,2.1109,2.1089,2.1065,2.1047,2.1031,2.1003,2.0968,2.0942,2.0924,2.0911,2.0906,2.0928,2.091,2.0836,2.0824,2.0813,2.0811,2.0927,2.0927,2.099,2.099,2.0991]}]]